EW7641 Weather Reports


time (UTC)temp
C
wind
direction
speed
KPH
gust
KPH
rain 1hr
cm
rain 24hr
cm
rain mn
cm
humidity
%
barometer
mb
20260906221830 32 42 0.0 0.0 0.00 0.05 0.00 32 1014.5
20260906220341 31 42 0.0 0.0 0.00 0.05 0.00 32 1015.0
20260906214828 31 96 0.0 0.0 0.00 0.05 0.00 31 1015.2
20260906213402 32 61 0.0 0.0 0.00 0.05 0.00 29 1015.3
20260906211839 32 99 0.0 0.0 0.00 0.05 0.00 28 1015.4
20260906210346 31 12 0.0 0.0 0.00 0.05 0.00 32 1015.6
20260906204833 31 13 0.0 0.0 0.00 0.05 0.00 32 1015.9
20260906203327 31 5 0.0 0.0 0.00 0.05 0.00 33 1016.0
20260906201850 31 350 0.0 0.0 0.00 0.05 0.00 33 1016.2
20260906200339 31 300 0.0 0.0 0.00 0.05 0.00 35 1016.5
20260906194854 30 324 0.0 0.0 0.00 0.05 0.00 34 1016.7
20260906193359 30 311 0.0 0.0 0.00 0.05 0.00 36 1016.8
20260906191837 29 296 0.0 0.0 0.00 0.05 0.00 37 1017.2
20260906190327 28 304 0.0 0.0 0.00 0.05 0.00 38 1017.5
20260906184838 28 334 0.0 0.0 0.00 0.05 0.00 39 1017.9
20260906183325 28 330 0.0 0.0 0.00 0.05 0.00 38 1018.1
20260906181843 27 293 0.0 0.0 0.00 0.05 0.00 38 1018.4
20260906180351 27 287 0.0 0.0 0.00 0.05 0.00 38 1018.8
20260906174840 27 279 0.0 0.0 0.00 0.05 0.00 39 1019.1
20260906173327 26 277 0.0 0.0 0.00 0.05 0.00 41 1019.3
20260906171827 26 277 0.0 0.0 0.00 0.05 0.00 41 1019.8
20260906170334 26 277 0.0 0.0 0.00 0.05 0.00 42 1020.0
20260906164839 25 277 0.0 0.0 0.00 0.05 0.00 43 1020.2
20260906163326 25 277 0.0 0.0 0.00 0.05 0.00 43 1020.3
20260906161835 24 277 0.0 0.0 0.00 0.05 0.00 47 1020.3
20260906160328 23 275 0.0 0.0 0.00 0.05 0.00 49 1020.4
20260906154843 22 275 0.0 0.0 0.00 0.05 0.00 51 1020.4
20260906153331 22 273 0.0 0.0 0.00 0.05 0.00 51 1020.3
20260906151825 22 272 0.0 0.0 0.00 0.05 0.00 53 1020.5
20260906150356 21 272 0.0 0.0 0.00 0.05 0.00 50 1020.5
20260906144826 21 272 0.0 0.0 0.00 0.05 0.00 51 1020.5
20260906143400 21 272 0.0 0.0 0.00 0.05 0.00 50 1020.5
20260906141840 20 272 0.0 0.0 0.00 0.05 0.00 51 1020.5
20260906140328 20 272 0.0 0.0 0.00 0.05 0.00 54 1020.6
20260906134834 19 272 0.0 0.0 0.00 0.05 0.00 58 1020.7
20260906133335 18 272 0.0 0.0 0.00 0.05 0.00 62 1020.6
20260906131842 17 272 0.0 0.0 0.00 0.05 0.00 66 1020.4
20260906130336 16 272 0.0 0.0 0.00 0.05 0.00 68 1020.2
20260906124827 16 272 0.0 0.0 0.00 0.05 0.00 67 1020.0
20260906123331 16 272 0.0 0.0 0.00 0.05 0.00 65 1019.9
20260906121826 16 272 0.0 0.0 0.00 0.05 0.00 64 1019.8
20260906120337 17 272 0.0 0.0 0.00 0.05 0.00 62 1020.1
20260906114839 17 272 0.0 0.0 0.00 0.05 0.00 60 1020.2
20260906113328 17 272 0.0 0.0 0.00 0.05 0.00 62 1020.1
20260906111832 17 272 0.0 0.0 0.00 0.05 0.00 64 1019.9
20260906110341 17 272 0.0 0.0 0.00 0.05 0.00 63 1019.8
20260906104835 17 272 0.0 0.0 0.00 0.05 0.00 59 1019.6
20260906103329 17 272 0.0 0.0 0.00 0.05 0.00 61 1019.4
20260906101845 17 272 0.0 0.0 0.00 0.05 0.00 61 1019.4
20260906100338 17 272 0.0 0.0 0.00 0.05 0.00 62 1019.4
20260906094838 18 272 0.0 0.0 0.00 0.05 0.00 60 1019.4
20260906093403 18 272 0.0 0.0 0.00 0.05 0.00 58 1019.3
20260906091844 18 272 0.0 0.0 0.00 0.05 0.00 61 1019.2
20260906090328 18 272 0.0 0.0 0.00 0.05 0.00 60 1019.3
20260906084837 19 272 0.0 0.0 0.00 0.05 0.00 56 1019.1
20260906083327 19 272 0.0 0.0 0.00 0.05 0.00 53 1018.9
20260906081855 19 272 0.0 0.0 0.00 0.05 0.00 54 1019.0
20260906080357 19 272 0.0 0.0 0.00 0.05 0.00 55 1018.9
20260906074824 20 272 0.0 0.0 0.00 0.05 0.00 55 1018.9
20260906073330 20 272 0.0 0.0 0.00 0.05 0.00 54 1018.9
20260906071837 19 272 0.0 0.0 0.00 0.05 0.00 57 1018.9
20260906070328 18 272 0.0 0.0 0.00 0.05 0.00 60 1018.9
20260906064849 18 272 0.0 0.0 0.00 0.05 0.00 69 1019.1
20260906063339 18 272 0.0 0.0 0.00 0.05 0.00 68 1019.1
20260906061840 19 272 0.0 0.0 0.00 0.05 0.00 69 1019.3
20260906060348 19 272 0.0 0.0 0.00 0.05 0.00 69 1019.4
20260906054826 19 272 0.0 0.0 0.05 0.05 0.05 72 1019.5
20260906053333 20 272 0.0 0.0 0.05 0.05 0.05 70 1019.3
20260906051834 21 272 0.0 0.0 0.05 0.05 0.05 60 1019.3
20260906050343 22 272 0.0 0.0 0.05 0.05 0.05 52 1019.6
20260906044833 25 143 0.0 0.0 0.00 0.00 0.00 37 1019.3
20260906043328 24 132 0.0 0.0 0.00 0.00 0.00 34 1019.5
20260906041843 24 128 0.0 0.0 0.00 0.00 0.00 38 1019.4
20260906040329 23 128 0.0 0.0 0.00 0.00 0.00 35 1019.2
20260906034840 23 128 0.0 0.0 0.00 0.00 0.00 37 1019.1
20260906033325 23 157 0.0 0.0 0.00 0.00 0.00 38 1018.4
20260906031827 23 157 0.0 0.0 0.00 0.00 0.00 38 1018.1
20260906030328 24 157 0.0 0.0 0.00 0.00 0.00 35 1018.0
20260906024838 25 157 0.0 0.0 0.00 0.00 0.00 35 1017.7
20260906023326 26 157 0.0 0.0 0.00 0.00 0.00 33 1017.5
20260906021857 26 157 0.0 0.0 0.00 0.00 0.00 31 1017.6
20260906020330 26 157 0.0 0.0 0.00 0.00 0.00 30 1017.3
20260906014903 27 157 0.0 0.0 0.00 0.00 0.00 29 1017.1
20260906013337 28 157 0.0 0.0 0.00 0.00 0.00 28 1016.8
20260906011836 29 157 0.0 0.0 0.00 0.00 0.00 27 1016.7
20260906010339 30 157 0.0 0.0 0.00 0.00 0.00 25 1016.7
20260906004843 31 157 0.0 0.0 0.00 0.00 0.00 23 1016.7
20260906003329 31 157 0.0 0.0 0.00 0.00 0.00 22 1016.7
20260906001859 32 130 0.0 0.0 0.00 0.00 0.00 21 1016.6
20260906000329 32 50 0.0 0.0 0.00 0.00 0.00 21 1016.6
20260905234833 32 67 0.0 0.0 0.00 0.00 0.00 21 1016.5
20260905233323 32 61 0.0 0.0 0.00 0.00 0.00 20 1016.4
20260905231838 32 28 0.0 0.0 0.00 0.00 0.00 21 1016.5
20260905230342 32 318 0.0 0.0 0.00 0.00 0.00 21 1016.4
20260905224853 32 318 0.0 0.0 0.00 0.00 0.00 20 1016.4
20260905223327 32 331 0.0 0.0 0.00 0.00 0.00 22 1016.5